Weather in Encarnaci贸n

Paraguay     27掳19鈥01鈥砈   55掳52鈥28鈥砏
temp.,
掳C
wind,
m/s
gust,
m/s
humid.,
%
clouds,
%
prec.,
mm/h
press.,
hPa
HPBL,
m
28 january, thu
thu2800:00+22n12984 1.6 100656
03:00+21ne23998 3.0 1005100
06:00+21ne259945 0.6 1005169
09:00+24nne249348 0.7 1007380
12:00+27n248747 2.7 1006846
15:00+29n236924 5.4 10041010
18:00+28n24830 1.1 1003574
21:00+23nne22960 2.1 100537
29 january, fri
fri2900:00+22ne25994 0.5 1005167
03:00+22ne389910 0.5 1004288
06:00+22nne31098100 0.8 1005345
09:00+25nnw379397 3.7 1007378
12:00+30nnw376930 4.4 10071200
15:00+33nw354715 4.9 10051758
18:00+31nw24640 0.0 1004908
21:00+24nne38930 0.6 1006222
30 january, sat
sat3000:00+22ne28972 0.0 1008254
03:00+22ne39976 0.0 1007307
06:00+22ne3109669 0.1 1008458
09:00+24ne498984 1.8 1010565
12:00+29nne4871100 0.9 1008874
15:00+33n375396 3.6 10061680
18:00+31n257393 0.7 1005475
21:00+26nne3108369 0.9 1005336
31 january, sun
sun3100:00+24ne210921 1.3 1007284
03:00+23nne3129710 3.2 1006431
06:00+23nne3129735 0.8 1007412
09:00+23n2109868 6.8 1009569
12:00+25nnw1896100 14.6 1009887
15:00+24sse3698100 22.8 1008300
18:00+23s3697100 2.3 1007302
21:00+21ene41198100 6.6 1008369
1 february, mon
mon100:00+21ene31099100 2.8 1008315
03:00+21ene2899100 18.3 1007349
06:00+22ene38100100 6.8 1007330
09:00+24nne31297100 16.3 1008727
12:00+24nne4799100 16.5 1009432
15:00+25nne3592100 19.1 1006336
18:00+24n41098100 8.4 1006575
21:00+22nne1498100 10.4 1007151